Ostrava, Czech Republic

6:31 PM CET on December 14, 2017 (GMT +0100)
Mosnov

Weather History for LKMT - October, 2011

Change the Weather History Date:

Sunday, October 16, 2011

  Actual Average Record
Temperature  
Mean Temperature 39 °F -  
Max Temperature 50 °F 50 °F - ()
Min Temperature 28 °F 37 °F - ()
Degree Days  
Heating Degree Days 26    
Moisture  
Dew Point 31 °F    
Average Humidity 76    
Maximum Humidity 100    
Minimum Humidity 39    
Precipitation  
Precipitation 0.00 in 0.06 in - ()
Sea Level Pressure  
Sea Level Pressure 30.49 in    
Wind  
Wind Speed 5 mph ()    
Max Wind Speed 10 mph    
Max Gust Speed -    
Visibility 5.8 miles    
Events      
T = Trace of Precipitation, MM = Missing Value Source: Averaged Metar Reports

Daily Weather History Graph

Daily Weather History Graph

Search for Another Location

Airport or City:

Trip Planner

Search our weather history database for the weather conditions in past years. The results will help you decide how hot, cold, wet, or windy it might be!

Date:

Astronomy

Oct. 16, 2011 Rise Set
Actual Time 7:09 AM CEST 5:55 PM CEST
Civil Twilight 6:37 AM CEST 6:28 PM CEST
Nautical Twilight 6:00 AM CEST 7:05 PM CEST
Astronomical Twilight 5:22 AM CEST 7:42 PM CEST
Moon 8:01 PM CEST (10/16) 11:36 AM CEST (10/16)
Length of Visible Light 11h 50m
Length of Day
10h 46m
Waning Gibbous, 84% of the Moon is Illuminated
Oct 16
Waning Gibbous
Oct 20
Last Quarter
Oct 26
New
Nov 2
First Quarter
Nov 10
Full

Hourly Weather History & Observations

Time (CEST) Temp. Windchill Dew Point Humidity Pressure Visibility Wind Dir Wind Speed Gust Speed Precip Events Conditions
12:00 AM 42.8 °F 37.5 °F 37.4 °F 81% 30.48 in 6.2 mi NE 9.2 mph - N/A   Mostly Cloudy
12:30 AM 41.0 °F 34.7 °F 33.8 °F 76% 30.48 in 6.2 mi NE 10.4 mph - N/A   Mostly Cloudy
1:00 AM 37.4 °F 30.8 °F 30.2 °F 75% 30.48 in 6.2 mi NE 9.2 mph - N/A   Scattered Clouds
1:30 AM 35.6 °F 29.9 °F 28.4 °F 75% 30.51 in - NE 6.9 mph - N/A   Clear
2:00 AM 34 °F - 29 °F 76% 30.56 in 9 mi NE 6.7 mph - -   Clear
2:00 AM 33.8 °F 27.0 °F 28.4 °F 81% 30.51 in - NE 8.1 mph - N/A   Clear
2:30 AM 35.6 °F 32.8 °F 30.2 °F 81% 30.51 in - NE 3.5 mph - N/A   Clear
3:00 AM 33.8 °F 29.6 °F 30.2 °F 87% 30.51 in - NE 4.6 mph - N/A   Clear
3:30 AM 33.8 °F 29.6 °F 28.4 °F 81% 30.51 in - NE 4.6 mph - N/A   Clear
4:00 AM 32.0 °F 25.6 °F 28.4 °F 87% 30.51 in - NE 6.9 mph - N/A   Clear
4:30 AM 30.2 °F 25.4 °F 28.4 °F 93% 30.51 in - NE 4.6 mph - N/A   Clear
5:00 AM 30.2 °F 25.4 °F 28.4 °F 93% 30.51 in - NE 4.6 mph - N/A   Clear
5:30 AM 30.2 °F 26.7 °F 28.4 °F 93% 30.51 in - NE 3.5 mph - N/A   Clear
6:00 AM 30.2 °F 25.4 °F 28.4 °F 93% 30.51 in - NE 4.6 mph - N/A   Clear
6:30 AM 28.4 °F 22.2 °F 26.6 °F 93% 30.51 in 5.0 mi NNE 5.8 mph - N/A   Unknown
7:00 AM 28.4 °F 24.6 °F 28.4 °F 100% 30.51 in 4.3 mi ENE 3.5 mph - N/A   Unknown
7:30 AM 30.2 °F 25.4 °F 28.4 °F 93% 30.51 in 4.3 mi NE 4.6 mph - N/A   Unknown
8:00 AM 29 °F - 28 °F 96% 30.58 in 3 mi NNE 4.5 mph - -   Mist
8:00 AM 28.4 °F 23.3 °F 28.4 °F 100% 30.51 in 3.1 mi NNE 4.6 mph - N/A   Mist
8:30 AM 32.0 °F - 30.2 °F 93% 30.51 in 3.1 mi Variable 2.3 mph - N/A   Partly Cloudy
9:00 AM 33.8 °F - 30.2 °F 87% 30.51 in 3.7 mi Variable 2.3 mph - N/A   Partly Cloudy
9:30 AM 35.6 °F - 32.0 °F 87% 30.51 in 4.3 mi Variable 2.3 mph - N/A   Unknown
10:00 AM 39.2 °F - 32.0 °F 75% 30.51 in 5.6 mi Variable 1.2 mph - N/A   Unknown
10:30 AM 39.2 °F - 32.0 °F 75% 30.54 in - Variable 2.3 mph - N/A   Clear
11:00 AM 41.0 °F - 32.0 °F 70% 30.54 in - Variable 1.2 mph - N/A   Clear
11:30 AM 42.8 °F - 30.2 °F 61% 30.54 in - Variable 2.3 mph - N/A   Clear
12:00 PM 44.6 °F 43.1 °F 30.2 °F 57% 30.54 in - Variable 3.5 mph - N/A   Clear
12:30 PM 44.6 °F 42.2 °F 30.2 °F 57% 30.51 in - SW 4.6 mph - N/A   Clear
1:00 PM 46.4 °F 44.3 °F 30.2 °F 53% 30.51 in - SW 4.6 mph - N/A   Clear
1:30 PM 46.4 °F 44.3 °F 30.2 °F 53% 30.51 in - WNW 4.6 mph - N/A   Clear
2:00 PM 49 °F - 32 °F 39% 30.52 in 16 mi 2.2 mph - -   Clear
2:00 PM 48.2 °F - 30.2 °F 50% 30.48 in - Variable 2.3 mph - N/A   Clear
2:30 PM 48.2 °F - 32.0 °F 54% 30.48 in - Variable 3.5 mph - N/A   Clear
3:00 PM 48.2 °F - 32.0 °F 54% 30.48 in - NW 3.5 mph - N/A   Clear
3:30 PM 50.0 °F - 32.0 °F 50% 30.45 in - North 3.5 mph - N/A   Clear
4:00 PM 48.2 °F - 32.0 °F 54% 30.45 in - Variable 2.3 mph - N/A   Clear
4:30 PM 48.2 °F - 32.0 °F 54% 30.45 in - NE 3.5 mph - N/A   Clear
5:00 PM 46.4 °F - 32.0 °F 57% 30.45 in - NNE 2.3 mph - N/A   Clear
5:30 PM 46.4 °F - 32.0 °F 57% 30.45 in - NE 2.3 mph - N/A   Clear
6:00 PM 44.6 °F - 32.0 °F 61% 30.45 in - North 2.3 mph - N/A   Clear
6:30 PM 42.8 °F - 32.0 °F 66% 30.45 in - Calm Calm - N/A   Clear
7:00 PM 42.8 °F - 32.0 °F 66% 30.45 in - Variable 1.2 mph - N/A   Clear
7:30 PM 39.2 °F 37.0 °F 33.8 °F 81% 30.45 in 5.6 mi East 3.5 mph - N/A   Unknown
8:00 PM 38 °F - 32 °F 72% 30.49 in 7 mi SW 2.2 mph - -   Clear
8:00 PM 37.4 °F 34.9 °F 33.8 °F 87% 30.45 in - SW 3.5 mph - N/A   Clear
8:30 PM 37.4 °F - 33.8 °F 87% 30.45 in - Variable 2.3 mph - N/A   Clear
9:00 PM 37.4 °F - 33.8 °F 87% 30.42 in - South 2.3 mph - N/A   Clear
9:30 PM 35.6 °F - 33.8 °F 93% 30.42 in - SW 2.3 mph - N/A   Clear
10:00 PM 35.6 °F 31.7 °F 32.0 °F 87% 30.42 in - SW 4.6 mph - N/A   Clear
10:30 PM 33.8 °F 29.6 °F 32.0 °F 93% 30.42 in - SSW 4.6 mph - N/A   Clear
11:00 PM 33.8 °F 28.6 °F 30.2 °F 87% 30.42 in - SW 5.8 mph - N/A   Clear
11:30 PM 32.0 °F 26.4 °F 30.2 °F 93% 30.42 in - SW 5.8 mph - N/A   Clear